This is the latest recevied weather packets stored in our database for station/object KJ4AJP. If no packets are shown the sender has not sent any weather packets the latest 10 day(s).
| Time | Temp. | Humidity | Pressure | Rain* | Wind** | Luminosity | Snow |
|---|---|---|---|---|---|---|---|
| 1777847515 | 21.67° C | 33% | 1015.2 hPa | 0 mm | - | 49 W/m² | - |
| 1777847212 | 21.67° C | 33% | 1015 hPa | 0 mm | - | 62 W/m² | - |
| 1777846909 | 21.67° C | 33% | 1015.1 hPa | 0 mm | - | 102 W/m² | - |
| 1777846608 | 21.67° C | 33% | 1015.2 hPa | 0 mm | - | 49 W/m² | - |
| 1777846306 | 21.67° C | 34% | 1015.1 hPa | 0 mm | - | 50 W/m² | - |
| 1777846002 | 22.22° C | 35% | 1015.2 hPa | 0 mm | - | 59 W/m² | - |
| 1777845698 | 21.67° C | 34% | 1015.3 hPa | 0 mm | - | 289 W/m² | - |
| 1777845395 | 21.67° C | 33% | 1015.5 hPa | 0 mm | - | 290 W/m² | - |
| 1777845091 | 22.22° C | 33% | 1015.5 hPa | 0 mm | - | 331 W/m² | - |
| 1777844791 | 22.22° C | 32% | 1015.7 hPa | 0 mm | - | 348 W/m² | - |
| 1777844486 | 22.22° C | 31% | 1015.8 hPa | 0 mm | - | 366 W/m² | - |
| 1777844186 | 21.67° C | 33% | 1015.8 hPa | 0 mm | - | 382 W/m² | - |
| 1777843882 | 22.22° C | 33% | 1015.8 hPa | 0 mm | - | 402 W/m² | - |
| 1777843579 | 22.22° C | 32% | 1016.3 hPa | 0 mm | - | 418 W/m² | - |
| 1777843277 | 22.78° C | 33% | 1016 hPa | 0 mm | - | 433 W/m² | - |
| 1777842974 | 22.78° C | 35% | 1016.3 hPa | 0 mm | - | 449 W/m² | - |
| 1777842669 | 22.78° C | 32% | 1016.5 hPa | 0 mm | - | 473 W/m² | - |
| 1777842366 | 22.78° C | 34% | 1016.5 hPa | 0 mm | - | 483 W/m² | - |
| 1777842062 | 22.22° C | 35% | 1016.6 hPa | 0 mm | - | 499 W/m² | - |
| 1777841759 | 22.22° C | 33% | 1016.7 hPa | 0 mm | - | 513 W/m² | - |
| 1777841455 | 22.22° C | 34% | 1016.6 hPa | 0 mm | - | 529 W/m² | - |
| 1777841152 | 22.22° C | 34% | 1017 hPa | 0 mm | - | 540 W/m² | - |
| 1777840849 | 22.22° C | 32% | 1017.1 hPa | 0 mm | - | 557 W/m² | - |
| 1777840546 | 22.22° C | 33% | 1017 hPa | 0 mm | - | 572 W/m² | - |
| 1777840243 | 22.22° C | 35% | 1017.2 hPa | 0 mm | - | 584 W/m² | - |
* Rain latest hour (hover to see other rain measurements)
** Current wind speed in m/s (hover to see current wind gust speed)